Weather History for Springfield, CO

Change the Weather History Date:

Wednesday, April 10, 2013

  Actual Average Record
Temperature  
Mean Temperature 26 °F -  
Max Temperature 38 °F 65 °F 87 °F (2006)
Min Temperature 13 °F 35 °F 13 °F (2013)
Degree Days  
Heating Degree Days 39 15  
Month to date heating degree days 204 164  
Since 1 July heating degree days 4662 4857  
Cooling Degree Days 0 0  
Month to date cooling degree days 0 0  
Year to date cooling degree days 0 0  
Moisture  
Dew Point 6 °F    
Average Humidity 48    
Maximum Humidity 67    
Minimum Humidity 29    
Precipitation  
Precipitation 0.00 in 0.05 in 0.06 in (2001)
Month to date precipitation 0.04 0.39  
Year to date precipitation 0.34 2.33  
Sea Level Pressure  
Sea Level Pressure 30.09 in    
Wind  
Wind Speed 21 mph (North)    
Max Wind Speed 32 mph    
Max Gust Speed 39 mph    
T = Trace of Precipitation, MM = Missing Value Source: NWS Daily Summary

Daily Weather History Graph

Daily Weather History Graph

Search for Another Location

Airport:

Trip Planner

Search our weather history database for the weather conditions in past years. The results will help you decide how hot, cold, wet, or windy it might be!

Date:

Astronomy

Apr. 10, 2013 Rise Set
Actual Time 6:22 AM MDT 7:21 PM MDT
Civil Twilight 5:55 AM MDT 7:48 PM MDT
Nautical Twilight 5:24 AM MDT 8:19 PM MDT
Astronomical Twilight 4:51 AM MDT 8:52 PM MDT
Moon 6:20 AM MDT (4/10) 7:57 PM MDT (4/10)
Length of Visible Light 13h 52m
Length of Day
12h 58m
New Moon, 0% of the Moon is Illuminated
Apr 10
New Moon
Apr 18
First Quarter
Apr 25
Full
May 2
Last Quarter
May 9
New

Hourly Weather History & Observations

Time (MDT) Temp. Windchill Dew Point Humidity Pressure Visibility Wind Dir Wind Speed Gust Speed Precip Events Conditions
12:56 AM 14.0 °F -6.5 °F 3.9 °F 64% 30.17 in - North 28.8 mph 38.0 mph N/A   Unknown
1:56 AM 12.9 °F -7.3 °F 3.0 °F 65% 30.17 in - North 26.5 mph 39.1 mph N/A   Unknown
2:56 AM 14.0 °F -6.2 °F 3.9 °F 64% 30.14 in - North 27.6 mph 33.4 mph N/A   Unknown
3:56 AM 12.9 °F -7.3 °F 3.0 °F 65% 30.16 in - North 26.5 mph 32.2 mph N/A   Unknown
4:56 AM 12.9 °F -4.9 °F 3.0 °F 65% 30.19 in - North 19.6 mph - N/A   Unknown
5:56 AM 12.9 °F -6.5 °F 3.9 °F 67% 30.15 in - North 24.2 mph 29.9 mph N/A   Unknown
6:56 AM 14.0 °F -5.1 °F 3.9 °F 64% 30.16 in - NNW 24.2 mph 33.4 mph N/A   Unknown
7:56 AM 16.0 °F -2.5 °F 3.9 °F 59% 30.18 in - North 24.2 mph 34.5 mph N/A   Unknown
8:56 AM 19.9 °F 2.5 °F 3.9 °F 50% 30.19 in - North 25.3 mph 35.7 mph N/A   Unknown
9:56 AM 21.9 °F 3.9 °F 3.9 °F 46% 30.17 in - North 29.9 mph 36.8 mph N/A   Unknown
10:56 AM 24.1 °F 9.4 °F 6.1 °F 46% 30.17 in - North 20.7 mph 31.1 mph N/A   Unknown
11:56 AM 30.0 °F 14.7 °F 6.1 °F 36% 30.10 in - NNW 31.1 mph 38.0 mph N/A   Unknown
12:56 PM 33.1 °F 19.6 °F 6.1 °F 32% 30.06 in - North 27.6 mph 38.0 mph N/A   Unknown
1:56 PM 36.0 °F 24.2 °F 8.1 °F 31% 30.05 in - North 24.2 mph 35.7 mph N/A   Unknown
2:56 PM 37.0 °F 26.4 °F 8.1 °F 30% 30.02 in - North 20.7 mph 32.2 mph N/A   Unknown
3:56 PM 37.0 °F 24.9 °F 8.1 °F 30% 30.00 in - North 27.6 mph 33.4 mph N/A   Unknown
4:56 PM 37.0 °F 26.4 °F 8.1 °F 30% 29.99 in - North 20.7 mph 28.8 mph N/A   Unknown
5:56 PM 33.1 °F 20.6 °F 9.0 °F 37% 30.01 in - North 23.0 mph - N/A   Unknown
6:56 PM 32.0 °F 20.8 °F 9.0 °F 38% 30.02 in - North 17.3 mph - N/A   Unknown
7:56 PM 27.0 °F 16.1 °F 9.0 °F 47% 30.04 in - North 12.7 mph - N/A   Unknown
8:56 PM 27.0 °F 15.6 °F 9.0 °F 47% 30.04 in - North 13.8 mph - N/A   Unknown
9:56 PM 24.1 °F 14.4 °F 8.1 °F 51% 30.06 in - North 9.2 mph - N/A   Unknown
10:56 PM 26.1 °F 16.8 °F 9.0 °F 49% 30.04 in - North 9.2 mph - N/A   Unknown
11:56 PM 27.0 °F 14.7 °F 9.0 °F 47% 29.98 in - North 16.1 mph - N/A   Unknown